Monticello, KY

10:22 AM EDT on June 28, 2017 (GMT -0400)
Wayne County

Weather History for KEKQ - August, 2013

Change the Weather History Date:

Thursday, August 1, 2013

  Actual Average Record
Temperature  
Mean Temperature 72 °F -  
Max Temperature 81 °F 86 °F 94 °F (1957)
Min Temperature 61 °F 63 °F 53 °F (1974)
Cooling Degree Days 6    
Growing Degree Days 22 (Base 50)    
Moisture  
Dew Point 69 °F    
Average Humidity 95    
Maximum Humidity 100    
Minimum Humidity 69    
Precipitation  
Precipitation 0.00 in - - ()
Sea Level Pressure  
Sea Level Pressure 30.02 in    
Wind  
Wind Speed 2 mph (NW)    
Max Wind Speed 10 mph    
Max Gust Speed -    
Visibility 5 miles    
Events Fog    
Averages and records for this station are not official NWS values.
T = Trace of Precipitation, MM = Missing Value Source: NWS Daily Summary

Daily Weather History Graph

Daily Weather History Graph

Search for Another Location

Airport or City:

Trip Planner

Search our weather history database for the weather conditions in past years. The results will help you decide how hot, cold, wet, or windy it might be!

Date:

Astronomy

Aug. 01, 2013 Rise Set
Actual Time 5:45 AM CDT 7:45 PM CDT
Civil Twilight 5:16 AM CDT 8:14 PM CDT
Nautical Twilight 4:41 AM CDT 8:49 PM CDT
Astronomical Twilight 4:04 AM CDT 9:26 PM CDT
Moon 1:21 AM CDT (8/1) 3:53 PM CDT (8/1)
Length of Visible Light 14h 57m
Length of Day
14h 00m
Waning Crescent, 23% of the Moon is Illuminated
Aug 1
Waning Crescent
Aug 6
New
Aug 14
First Quarter
Aug 20
Full
Aug 28
Last Quarter

Hourly Weather History & Observations

Time (CDT) Temp. Heat Index Dew Point Humidity Pressure Visibility Wind Dir Wind Speed Gust Speed Precip Events Conditions
12:05 AM 66.2 °F - 66.2 °F 100% 30.02 in 1.2 mi Calm Calm - N/A   Mostly Cloudy
12:13 AM 66.2 °F - 66.2 °F 100% 30.02 in 0.8 mi Calm Calm - N/A   Mostly Cloudy
12:21 AM 66.2 °F - 66.2 °F 100% 30.02 in 0.5 mi Calm Calm - N/A Fog Fog
12:42 AM 68.0 °F - 68.0 °F 100% 30.01 in 0.2 mi Calm Calm - N/A Fog Fog
12:49 AM 68.0 °F - 68.0 °F 100% 30.00 in 0.2 mi Calm Calm - N/A Fog Fog
12:56 AM 68.0 °F - 68.0 °F 100% 30.00 in 0.2 mi Calm Calm - N/A Fog Fog
1:56 AM 68.9 °F - 68.9 °F 100% 29.99 in 0.2 mi Calm Calm - N/A Fog Fog
2:56 AM 68.9 °F - 68.9 °F 100% 29.99 in 0.2 mi Calm Calm - N/A Fog Fog
3:07 AM 69.8 °F - 69.8 °F 100% 30.00 in 0.5 mi Calm Calm - N/A Fog Fog
3:11 AM 69.8 °F - 69.8 °F 100% 30.00 in 1.0 mi Calm Calm - N/A   Overcast
3:15 AM 69.8 °F - 69.8 °F 100% 30.00 in 0.5 mi Calm Calm - N/A Fog Fog
3:25 AM 69.8 °F - 69.8 °F 100% 30.00 in 0.2 mi Calm Calm - N/A Fog Fog
3:33 AM 69.8 °F - 69.8 °F 100% 30.00 in 0.5 mi Calm Calm - N/A Fog Fog
3:36 AM 69.8 °F - 69.8 °F 100% 30.00 in 1.0 mi Calm Calm - N/A   Overcast
3:39 AM 69.8 °F - 69.8 °F 100% 30.00 in 1.5 mi Calm Calm - N/A   Overcast
3:56 AM 68.9 °F - 68.9 °F 100% 29.99 in 2.5 mi Calm Calm - N/A   Overcast
4:08 AM 69.8 °F - 69.8 °F 100% 29.99 in 2.0 mi Calm Calm - N/A   Overcast
4:32 AM 69.8 °F - 69.8 °F 100% 29.99 in 4.0 mi Calm Calm - N/A   Overcast
4:56 AM 68.9 °F - 68.9 °F 100% 30.00 in 9.0 mi Calm Calm - N/A   Overcast
5:42 AM 69.8 °F - 69.8 °F 100% 30.02 in 8.0 mi Calm Calm - N/A   Overcast
5:56 AM 68.9 °F - 68.9 °F 100% 30.02 in 8.0 mi Calm Calm - N/A   Overcast
6:22 AM 69.8 °F - 69.8 °F 100% 30.03 in 6.0 mi Calm Calm - N/A   Overcast
6:49 AM 69.8 °F - 69.8 °F 100% 30.04 in 6.0 mi Calm Calm - N/A   Overcast
6:56 AM 68.9 °F - 68.9 °F 100% 30.04 in 6.0 mi West 5.8 mph - N/A   Overcast
7:46 AM 69.8 °F - 69.8 °F 100% 30.04 in 6.0 mi NW 3.5 mph - N/A   Overcast
7:56 AM 68.9 °F - 68.9 °F 100% 30.04 in 5.0 mi WNW 6.9 mph - N/A   Overcast
8:34 AM 69.8 °F - 69.8 °F 100% 30.05 in 5.0 mi NW 3.5 mph - N/A   Overcast
8:56 AM 70.9 °F - 70.9 °F 100% 30.04 in 4.0 mi NW 6.9 mph - N/A   Overcast
9:40 AM 71.6 °F - 71.6 °F 100% 30.04 in 6.0 mi WNW 5.8 mph - N/A   Overcast
9:56 AM 72.9 °F - 70.9 °F 93% 30.04 in 6.0 mi Calm Calm - N/A   Mostly Cloudy
10:56 AM 74.8 °F - 70.9 °F 87% 30.05 in 9.0 mi Variable 4.6 mph - N/A   Mostly Cloudy
11:56 AM 75.9 °F - 72.0 °F 87% 30.06 in 8.0 mi West 5.8 mph - N/A   Mostly Cloudy
12:07 PM 77.0 °F - 73.4 °F 89% 30.07 in 8.0 mi West 5.8 mph - N/A   Scattered Clouds
12:27 PM 75.2 °F - 71.6 °F 89% 30.06 in 5.0 mi WNW 10.4 mph - N/A   Mostly Cloudy
12:56 PM 79.0 °F - 72.9 °F 81% 30.05 in 6.0 mi NW 10.4 mph - N/A   Haze
1:38 PM 78.8 °F - 73.4 °F 83% 30.04 in 9.0 mi NW 6.9 mph - N/A   Mostly Cloudy
1:56 PM 79.9 °F - 72.9 °F 79% 30.03 in 10.0 mi NW 6.9 mph - N/A   Mostly Cloudy
2:09 PM 80.6 °F 84.6 °F 71.6 °F 74% 30.04 in 10.0 mi NW 8.1 mph - N/A   Scattered Clouds
2:56 PM 79.9 °F - 70.9 °F 74% 30.02 in 10.0 mi WNW 6.9 mph - N/A   Partly Cloudy
3:56 PM 81.0 °F 84.7 °F 70.9 °F 71% 30.01 in 10.0 mi WNW 8.1 mph - N/A   Partly Cloudy
4:56 PM 81.9 °F 86.0 °F 70.9 °F 69% 30.00 in 10.0 mi NW 9.2 mph - N/A   Partly Cloudy
5:56 PM 79.0 °F - 70.9 °F 76% 30.01 in 9.0 mi NW 3.5 mph - N/A   Partly Cloudy
6:56 PM 77.9 °F - 68.9 °F 74% 30.01 in 10.0 mi NW 4.6 mph - N/A   Clear
7:56 PM 70.0 °F - 68.9 °F 96% 30.02 in 7.0 mi Calm Calm - N/A   Clear
8:56 PM 64.9 °F - 64.9 °F 100% 30.03 in 6.0 mi Calm Calm - N/A   Clear
9:56 PM 63.9 °F - 63.9 °F 100% 30.04 in 5.0 mi Calm Calm - N/A   Clear
10:56 PM 63.0 °F - 63.0 °F 100% 30.05 in 4.0 mi Calm Calm - N/A   Clear
11:07 PM 62.6 °F - 62.6 °F 100% 30.05 in 2.0 mi Calm Calm - N/A   Clear
11:14 PM 62.6 °F - 62.6 °F 100% 30.05 in 1.5 mi Calm Calm - N/A   Clear
11:35 PM 62.6 °F - 62.6 °F 100% 30.06 in 1.2 mi Calm Calm - N/A   Clear
11:47 PM 62.6 °F - 62.6 °F 100% 30.06 in 1.8 mi Calm Calm - N/A   Clear
11:56 PM 61.9 °F - 61.9 °F 100% 30.06 in 3.0 mi Calm Calm - N/A   Clear